Satellite-Ground Cal/Val Region Overpasses Predictions

Prediction of Satellite NPP Overpassing Cal/Val Region: PacNW

Region Location: (Latitude: 10.00, Longitude: 139.50) to (Latitude: 22.70, Longitude: 165.60).

Table of predicted overpasses for the next 14.0 days since TLE Epoch: 3/14/2020
Interval Starting Time Starting Location Ending Time Ending Location
1 03/15/2020 03:42:24 ( 10.02, 144.02) 03/15/2020 03:45:59 ( 22.64, 141.02)
2 03/15/2020 14:33:58 ( 18.48, 165.60) 03/15/2020 14:36:22 ( 10.03, 163.62)
3 03/15/2020 16:14:17 ( 22.64, 141.25) 03/15/2020 16:16:19 ( 15.48, 139.51)
4 03/16/2020 03:23:22 ( 10.03, 148.78) 03/16/2020 03:26:57 ( 22.65, 145.77)
5 03/16/2020 15:55:15 ( 22.69, 146.02) 03/16/2020 15:58:51 ( 10.01, 143.00)
6 03/17/2020 03:04:21 ( 10.04, 153.53) 03/17/2020 03:07:56 ( 22.66, 150.53)
7 03/17/2020 15:36:14 ( 22.68, 150.77) 03/17/2020 15:39:49 ( 10.06, 147.77)
8 03/18/2020 02:45:19 ( 10.06, 158.28) 03/18/2020 02:48:54 ( 22.68, 155.28)
9 03/18/2020 15:17:12 ( 22.67, 155.52) 03/18/2020 15:20:47 ( 10.04, 152.52)
10 03/19/2020 02:26:17 ( 10.01, 163.05) 03/19/2020 02:29:53 ( 22.69, 160.04)
11 03/19/2020 14:58:11 ( 22.65, 160.28) 03/19/2020 15:01:46 ( 10.03, 157.27)
12 03/20/2020 02:09:55 ( 19.42, 165.60) 03/20/2020 02:10:50 ( 22.64, 164.80)
13 03/20/2020 03:48:45 ( 10.03, 142.43) 03/20/2020 03:52:15 ( 22.36, 139.50)
14 03/20/2020 14:39:08 ( 22.70, 165.05) 03/20/2020 14:42:44 ( 10.02, 162.03)
15 03/20/2020 16:20:38 ( 22.69, 139.67) 03/20/2020 16:20:49 ( 22.05, 139.51)
16 03/21/2020 03:29:44 ( 10.04, 147.18) 03/21/2020 03:33:19 ( 22.66, 144.18)
17 03/21/2020 16:01:37 ( 22.68, 144.42) 03/21/2020 16:05:13 ( 10.00, 141.41)
18 03/22/2020 03:10:42 ( 10.05, 151.94) 03/22/2020 03:14:17 ( 22.68, 148.94)
19 03/22/2020 15:42:35 ( 22.67, 149.18) 03/22/2020 15:46:10 ( 10.05, 146.17)
20 03/23/2020 02:51:40 ( 10.01, 156.71) 03/23/2020 02:55:16 ( 22.69, 153.69)
21 03/23/2020 15:23:34 ( 22.65, 153.93) 03/23/2020 15:27:09 ( 10.03, 150.93)
22 03/24/2020 02:32:38 ( 10.02, 161.46) 03/24/2020 02:36:13 ( 22.65, 158.46)
23 03/24/2020 15:04:31 ( 22.70, 158.70) 03/24/2020 15:08:07 ( 10.02, 155.68)
24 03/25/2020 02:14:23 ( 12.74, 165.59) 03/25/2020 02:17:12 ( 22.66, 163.21)
25 03/25/2020 03:55:07 ( 10.04, 140.84) 03/25/2020 03:56:45 ( 15.80, 139.50)
26 03/25/2020 14:45:30 ( 22.68, 163.45) 03/25/2020 14:49:06 ( 10.00, 160.44)
27 03/26/2020 03:36:05 ( 10.00, 145.60) 03/26/2020 03:39:41 ( 22.68, 142.59)
28 03/26/2020 14:29:34 ( 11.75, 165.59) 03/26/2020 14:30:03 ( 10.04, 165.20)
29 03/26/2020 16:07:58 ( 22.66, 142.83) 03/26/2020 16:11:33 ( 10.04, 139.83)
30 03/27/2020 03:17:03 ( 10.02, 150.36) 03/27/2020 03:20:39 ( 22.70, 147.34)
31 03/27/2020 15:48:57 ( 22.64, 147.58) 03/27/2020 15:52:32 ( 10.02, 144.58)
32 03/28/2020 02:58:02 ( 10.03, 155.11) 03/28/2020 03:01:37 ( 22.66, 152.11)


NCC Satellite Cal/Val Overpasses Prediction Service
